Погода в Таловой

Россия / Воронежская область     51°07′09″N   40°43′31″E
темп.,
°C
ветер,
м/с
пор.,
м/с
влажн.,
%
обл.,
%
осадки,
мм/ч
давл.,
гПа
погр.,
м
10 мая, пн
пн1000:00+5ссз61188100 0.1 10171067
03:00+5ссз5991100 0.1 1018972
06:00+5ссз71289100 0.0 1017803
09:00+5ссз81388100 0.1 1017730
12:00+6ссз91692100 0.4 1015835
15:00+6с101896100 3.2 1013651
18:00+9ссв112195100 3.4 1011644
21:00+11ссв91595100 3.7 1013679
11 мая, вт
вт1100:00+11св71396100 0.9 1013854
03:00+10вюв5998100 2.6 1014574
06:00+7вюв389496 3.1 1016508
09:00+9вюв61077100 3.2 10181125
12:00+10в71167100 0.1 10201746
15:00+11вюв8127192 0.4 10211639
18:00+9юв7117793 0.3 10241046
21:00+6в410909 0.3 1024223
12 мая, ср
ср1200:00+7всв5118896 0.0 1024279
03:00+8всв51182100 0.0 1023244
06:00+8всв51280100 0.0 1022361
09:00+12всв687588 0.0 1021537
12:00+13юв576895 2.4 10201374
15:00+17юв6953100 2.8 10192298
18:00+15вюв497026 0.1 1019483
21:00+10зюз228487 0.1 101910
13 мая, чт
чт1300:00+11св338099 0.0 101936
03:00+10вюв348499 0.0 101959
06:00+11в238160 0.0 101857
09:00+17всв226876 0.0 1018503
12:00+21юв015594 0.0 10171317
15:00+22в224917 0.0 10171701
18:00+21в467030 0.1 1017390
21:00+16вюв358486 0.1 101763
14 мая, пт
пт1400:00+15вюв3483100 0.0 101765
03:00+14вюв468598 0.0 101788
06:00+15вюв3783100 0.0 1017145
09:00+22вюв586799 0.0 1016569
12:00+25юв675215 0.0 10161323
15:00+26юв6747100 0.0 10151457
18:00+25юв596499 0.0 1014336
21:00+19юв41178100 0.0 1014186